{"data":{"norad_id":55371,"intl_designator":"2023-013AS","name":"STARLINK-5590","alt_names":[],"object_type":"PAYLOAD","status":"ACTIVE","operator":null,"country":"US","launch_date":"2023-01-26","launch_site_code":"AFETR","launch_vehicle":null,"mission":null,"orbit_class":"UNKNOWN","rcs_meters":null,"size_class":null,"mass_kg":null,"dimensions":null,"purposes":["comms"],"wikipedia_slug":null,"has_3d_model":false,"image_url":null,"decayed_at":null,"tle_current":{"epoch":"2026-09-20T09:20:07.524672Z","epoch_age_seconds":106304,"freshness":"FRESH","line1":"1 55371U 23013AS  26263.38897598  .00000102  00000+0  13221-4 0  9991","line2":"2 55371  43.0011 301.6584 0001547 274.7649  85.3026 15.27576212202168","mean_motion":15.27576212,"eccentricity":0.0001547,"inclination_deg":43.0011,"raan_deg":301.6584,"arg_perigee_deg":274.7649,"mean_anomaly_deg":85.3026,"bstar":1.3221e-5,"rev_number":20216,"period_min":94.266982471183,"perigee_km":481.99901145405,"apogee_km":484.12186594158,"semimajor_km":6861.1974386978,"source":"CELESTRAK","updated_at":"2026-09-21T09:00:33.209378Z"}}}